Hlavní strana
METAR-TAF:

METAR-TAF

Letiště :

Newnan-Coweta County Airport

Newnan, Georgie, Spojené státy americké

zeměpisná šířka: 33-18-44N, zeměpisná délka: 084-46-13W, výška: 296 m

Aktuální stav počasí

Zpráva byla vytvořena před 16 minutami, v 17:55 UTC
Severní vítr 7 kt
Teplota 9°C
Vlhkost vzduchu 93%
Tlak 1019 hPa
Viditelnost: 6.4 km
Zataženo ve výšce 400 ft
silné mrholení

METAR: KCCO 151755Z AUTO 36007KT 4SM +DZ OVC004 09/08 A3010 RMK AO2 T00900083 10091 20073

Čas: 13:11 (18:11 UTC)


TAF: chybějící

Stav a předpovědi počasí z více než 4 000 letišť (zprávy METAR a TAF).

Červené a žluté tečky na mapě představují dostupné meteorologické stanice.

Když kurzor umístíte na tečku, zobrazí se název stanice.

Pak kliknutím zobrazíte stav a předpověď počasí.

Chcete-li změnit mapu, kliknutím na zelené tlačítko se znaménkem +mapu přiblížíte, kliknutím na zelené tlačítko se znaménkem – mapu oddálíte a kliknutím na zelené šipky přejdete na sousední mapy.


METAR-TAF: